Stations météo

Publicité
Bergerac, France (7530): Température de l'air & dewpoint: 14.07.2018 12:00:00 - 20.07.2018 12:00:00 (CEST)Bergerac, France (7530): Température de l'air 5cm: 14.07.2018 12:00:00 - 20.07.2018 12:00:00 (CEST)Bergerac, France (7530): Température de l'air -20cm & Température de l'air -100cm: 14.07.2018 12:00:00 - 20.07.2018 12:00:00 (CEST)Bergerac, France (7530): Vitesse du vent & gusts: 14.07.2018 12:00:00 - 20.07.2018 12:00:00 (CEST)Bergerac, France (7530): Direction du vent: 14.07.2018 12:00:00 - 20.07.2018 12:00:00 (CEST)Bergerac, France (7530): reduced air pressure: 14.07.2018 12:00:00 - 20.07.2018 12:00:00 (CEST)Bergerac, France (7530): visibility: 14.07.2018 12:00:00 - 20.07.2018 12:00:00 (CEST)Bergerac, France (7530): Ensoleillement: 14.07.2018 12:00:00 - 20.07.2018 12:00:00 (CEST)Bergerac, France (7530): Quantités de précipitations: 14.07.2018 12:00:00 - 20.07.2018 12:00:00 (CEST)
Date & Time tt [°C] td [°C] tt 5cm [°C] tt -20cm [°C] tt -100cm [°C] ff [km/h] ff [knt] fx [km/h] fx [knt] dd ppp [hPa] vv [km] sd [min] rr [mm]
20.07.2018 12:00:00 24,0 17,7 23,9 22,4 20,0 13 7 22 12 W 1016,1 31 33 0,0
20.07.2018 11:00:00 21,9 17,3 21,4 22,5 20,0 13 7 21 12 W 1016,2 46 6 0,0
20.07.2018 10:00:00 19,7 16,9 19,7 22,6 19,9 13 7 19 10 W 1016,4 41 0 0,0
20.07.2018 09:00:00 19,3 16,3 18,0 22,7 20,0 7 4 12 6 WNW 1016,2 39 0 0,0
20.07.2018 08:00:00 18,1 15,9 17,5 22,8 20,0 9 5 21 11 NW 1015,9 39 0 0,0
20.07.2018 07:00:00 17,9 15,9 16,3 23,0 19,9 14 7 21 11 W 1015,8 41 0 0,0
20.07.2018 06:00:00 18,0 15,6 16,8 23,1 20,0 10 5 16 8 WNW 1015,1 18 0 0,0
20.07.2018 05:00:00 18,3 15,7 16,9 23,2 19,9 8 5 18 10 NW 1015,5 45 0 0,0
20.07.2018 04:00:00 18,7 15,8 16,8 23,4 20,0 8 5 16 9 WNW 1015,8 44 0 0,0
20.07.2018 03:00:00 19,8 15,9 18,4 23,5 20,0 9 5 22 12 WNW 1015,8 49 0 0,0
20.07.2018 02:00:00 20,7 16,1 18,9 23,6 19,9 12 6 20 11 NW 1015,5 48 0 0,0
20.07.2018 01:00:00 21,6 17,0 19,6 23,6 19,9 13 7 22 12 NNW 1015,7 42 0 0,0
20.07.2018 00:00:00 22,4 17,5 20,8 23,8 20,0 11 6 23 13 NW 1015,4 41 0 0,0
19.07.2018 23:00:00 23,4 17,8 20,9 23,8 20,0 10 6 28 15 WNW 1015,0 38 0 0,0
19.07.2018 22:00:00 25,4 18,3 21,3 23,8 20,0 15 8 32 17 NNW 1014,0 37 4 0,0
19.07.2018 21:00:00 28,6 19,2 24,5 23,7 19,9 6 3 16 8 WNW 1013,3 18 60 0,0
19.07.2018 20:00:00 30,1 18,5 29,1 23,6 20,0 10 6 19 11 WNW 1013,2 49 56 0,0
19.07.2018 19:00:00 31,3 18,6 33,5 23,4 19,9 11 6 18 10 W 1013,0 3,3 56 0,0
19.07.2018 18:00:00 31,7 18,7 37,1 23,1 20,0 6 3 16 9 SE 1013,3 44 55 0,0
19.07.2018 17:00:00 31,5 19,2 39,1 22,8 19,9 5 3 15 8 W 1013,7 20 60 0,0
19.07.2018 16:00:00 30,2 19,9 37,6 22,5 19,9 6 4 20 11 ENE 1014,1 57 60 0,0
19.07.2018 15:00:00 29,8 19,5 39,4 22,3 19,9 4 2 13 7 SSW 1014,6 20 60 0,0
19.07.2018 14:00:00 29,1 20,5 38,7 22,0 19,9 6 4 15 8 ENE 1015,2 59 60 0,0
19.07.2018 13:00:00 28,3 20,8 37,1 21,8 19,9 4 2 14 8 N 1015,6 43 60 0,0
19.07.2018 12:00:00 27,3 21,1 35,5 21,8 19,9 4 2 16 8 ESE 1016,1 40 60 0,0
19.07.2018 11:00:00 25,9 19,8 32,3 21,7 19,9 4 2 11 6 SSW 1016,2 48 60 0,0
19.07.2018 10:00:00 24,1 19,4 26,0 21,8 19,9 3 2 11 6 NNE 1016,5 20 60 0,0
19.07.2018 09:00:00 20,8 18,6 19,2 21,9 19,9 5 3 10 5 ENE 1016,5 20 60 0,0
19.07.2018 08:00:00 18,1 17,6 15,0 22,1 19,9 3 2 10 5 E 1016,0 20 60 0,0
19.07.2018 07:00:00 15,9 15,7 12,9 22,2 19,9 6 4 9 5 E 1015,9 5 5 0,0
19.07.2018 06:00:00 15,8 15,5 12,8 22,3 19,9 4 2 7 4 ENE 1015,6 1,7 0 0,0
19.07.2018 05:00:00 16,4 16,1 14,3 22,5 19,9 6 4 12 7 E 1015,9 11 0 0,0
19.07.2018 04:00:00 16,6 16,1 14,9 22,6 19,9 8 4 10 5 ENE 1015,7 16 0 0,0
19.07.2018 03:00:00 17,2 16,7 14,8 22,7 19,9 7 4 9 5 ENE 1015,8 12 0 0,0
19.07.2018 02:00:00 17,7 17,1 15,4 22,8 19,9 6 3 9 5 ENE 1016,4 12 0 0,0
19.07.2018 01:00:00 18,7 17,5 16,0 22,9 19,9 3 2 5 3 SSE 1016,4 15 0 0,0
19.07.2018 00:00:00 19,9 18,6 17,8 23,0 19,9 5 3 8 5 SW 1016,6 30 0 0,0
18.07.2018 23:00:00 20,2 18,7 17,6 23,0 19,9 3 2 9 5 SSW 1016,5 19 0 0,0
18.07.2018 22:00:00 20,7 18,1 17,5 23,1 19,9 6 3 11 6 E 1015,7 3,5 0 0,0
18.07.2018 21:00:00 22,6 19,2 20,7 23,0 19,9 8 4 13 7 SSE 1015,0 50 18 0,0
18.07.2018 20:00:00 24,8 19,4 23,9 23,0 19,9 3 2 21 11 SE 1014,6 20 23 0,0
18.07.2018 19:00:00 25,9 20,0 21,2 22,9 19,9 11 6 20 11 NNW 1014,8 44 31 0,0
18.07.2018 18:00:00 23,6 18,9 19,8 22,8 19,9 12 7 33 18 WNW 1014,7 28 0 2,6
18.07.2018 17:00:00 27,5 17,9 24,9 22,5 19,9 11 6 25 13 SW 1014,4 15 14 0,0
18.07.2018 16:00:00 30,4 16,4 34,7 22,2 19,9 13 7 29 15 ENE 1013,4 30 58 0,0
18.07.2018 15:00:00 30,1 17,2 37,0 22,0 19,9 11 6 29 16 NE 1013,9 60 60 0,0
18.07.2018 14:00:00 29,0 16,9 30,5 21,8 19,9 11 6 27 14 E 1014,3 57 54 0,0
18.07.2018 13:00:00 27,9 16,8 28,4 21,7 19,9 17 9 27 15 ENE 1014,9 60 49 0,0
18.07.2018 12:00:00 26,7 16,9 28,7 21,6 19,9 19 11 32 17 E 1015,2 55 52 0,0
18.07.2018 11:00:00 25,3 17,2 27,3 21,6 19,9 14 8 24 13 ENE 1015,8 60 60 0,0
18.07.2018 10:00:00 22,6 17,3 23,6 21,7 19,9 16 9 23 12 ENE 1016,2 60 60 0,0
18.07.2018 09:00:00 20,0 17,2 18,6 21,8 19,9 11 6 16 8 ENE 1016,9 60 60 0,0
18.07.2018 08:00:00 17,0 16,0 12,9 22,0 19,9 5 3 7 4 E 1017,1 38 60 0,0
18.07.2018 07:00:00 15,0 14,8 11,7 22,1 19,9 3 2 5 3 NE 1017,0 17 7 0,0
18.07.2018 06:00:00 14,4 14,1 11,8 22,3 19,9 2 1 7 4 ESE 1016,9 9 0 0,0
18.07.2018 05:00:00 14,9 14,6 11,9 22,5 19,9 2 1 5 3 SE 1016,9 11 0 0,2
18.07.2018 04:00:00 15,4 14,8 11,9 22,6 19,9 2 1 5 3 ENE 1017,3 11 0 0,0
18.07.2018 03:00:00 15,9 15,4 12,5 22,7 19,9 3 2 5 3 NE 1017,6 18 0 0,0
18.07.2018 02:00:00 16,4 15,8 13,2 22,9 19,9 2 1 6 3 SE 1017,8 18 0 0,0
18.07.2018 01:00:00 17,2 16,1 - - - 4 2 8 4 SSE 1018,1 40 - 0,0
18.07.2018 00:00:00 18,2 16,9 15,2 23,1 19,9 2 1 10 5 NNW 1018,2 57 0 0,0
17.07.2018 23:00:00 19,0 17,3 16,0 23,1 20,0 2 1 7 4 SSW 1018,2 50 0 0,0
17.07.2018 22:00:00 21,6 17,6 17,1 23,1 19,9 4 2 6 4 ENE 1017,7 2,3 0 0,0
17.07.2018 21:00:00 25,8 16,4 21,6 23,0 19,9 3 1 7 4 N 1017,4 60 44 0,0
17.07.2018 20:00:00 27,3 15,3 25,6 23,0 19,9 5 3 9 5 N 1017,3 60 57 0,0
17.07.2018 19:00:00 27,8 15,5 32,0 22,8 20,0 4 2 12 6 SE 1017,4 57 57 0,0
17.07.2018 18:00:00 27,7 16,0 31,5 22,6 19,9 4 2 28 15 E 1018,0 57 57 0,0
17.07.2018 17:00:00 27,8 15,1 34,2 22,4 20,0 5 3 15 8 N 1018,5 53 57 0,0
17.07.2018 16:00:00 27,9 16,8 29,2 22,1 20,0 4 2 11 6 WNW 1019,0 60 44 0,0
17.07.2018 15:00:00 25,5 16,4 27,6 21,9 19,9 6 3 16 9 N 1019,5 60 14 0,0
17.07.2018 14:00:00 26,6 17,1 30,8 21,7 19,9 7 4 22 12 SE 1020,0 20 47 0,0
17.07.2018 13:00:00 25,3 15,3 26,6 21,5 19,9 3 2 14 7 WNW 1020,3 60 57 0,0
17.07.2018 12:00:00 23,1 15,9 25,5 21,4 19,9 8 5 16 9 W 1020,9 58 48 0,0
17.07.2018 11:00:00 22,7 16,9 27,9 21,5 19,9 4 2 14 8 NW 1021,0 19 46 0,0
17.07.2018 10:00:00 21,8 17,6 23,8 21,5 19,9 5 3 16 8 NNE 1021,1 50 57 0,0
17.07.2018 09:00:00 18,3 17,3 17,2 21,6 19,9 3 2 6 3 E 1021,2 17 11 0,0
17.07.2018 08:00:00 16,6 16,4 13,2 21,7 19,9 4 2 7 4 NNE 1021,0 10 23 0,0
17.07.2018 07:00:00 14,8 14,5 11,6 21,9 19,9 2 1 7 4 ESE 1020,7 2,6 0 0,0
17.07.2018 06:00:00 14,8 14,3 11,8 22,0 19,9 3 2 6 3 E 1020,5 10 0 0,0
17.07.2018 05:00:00 15,6 15,1 12,7 22,1 19,9 5 3 7 4 S 1020,3 10 0 0,0
17.07.2018 04:00:00 16,2 15,7 12,9 22,3 19,9 4 2 6 4 ESE 1020,4 9 0 0,0
17.07.2018 03:00:00 16,3 15,5 12,9 22,4 19,9 4 2 8 5 SSW 1020,7 13 0 0,0
17.07.2018 02:00:00 17,5 16,0 14,6 22,5 19,9 5 3 11 6 SW 1020,6 31 0 0,0
17.07.2018 01:00:00 17,4 15,9 15,0 22,6 19,9 6 3 13 7 WSW 1020,6 28 0 0,0
17.07.2018 00:00:00 18,5 16,1 16,9 22,7 19,9 11 6 22 12 W 1020,3 31 0 0,0
16.07.2018 23:00:00 19,8 16,6 18,6 22,7 19,9 16 9 25 14 W 1019,8 30 0 0,0
16.07.2018 22:00:00 21,1 16,9 19,8 22,7 19,9 17 9 35 19 W 1018,8 30 4 0,0
16.07.2018 21:00:00 23,0 17,5 22,4 22,7 19,9 23 12 41 22 W 1018,1 33 52 0,0
16.07.2018 20:00:00 24,8 17,3 24,7 22,7 19,9 30 16 43 23 WNW 1017,2 46 58 0,0
16.07.2018 19:00:00 26,1 18,0 25,7 22,6 19,9 24 13 38 20 WNW 1016,6 55 27 0,0
16.07.2018 18:00:00 26,3 17,9 25,4 22,6 19,9 24 13 36 19 W 1016,2 33 28 0,0
16.07.2018 17:00:00 25,1 19,5 25,7 22,5 19,9 12 6 23 12 WNW 1016,2 20 13 0,0
16.07.2018 16:00:00 22,9 18,2 22,3 22,4 19,9 10 5 26 14 NW 1016,3 39 0 0,0
16.07.2018 15:00:00 22,3 17,7 23,0 22,4 19,9 13 7 24 13 WNW 1016,2 49 0 0,0
16.07.2018 14:00:00 22,7 16,7 23,8 22,3 19,9 16 9 27 15 WNW 1016,0 56 22 0,0
16.07.2018 13:00:00 23,0 19,2 22,4 22,3 19,9 8 5 18 10 W 1015,9 30 15 0,0
16.07.2018 12:00:00 20,6 18,0 21,5 22,3 19,9 11 6 17 9 W 1016,0 32 0 0,0
16.07.2018 11:00:00 19,9 17,3 21,3 22,4 19,9 7 4 14 8 W 1015,7 35 3 0,0
16.07.2018 10:00:00 19,7 17,3 20,0 22,5 19,9 8 4 18 10 W 1015,4 43 13 0,0
16.07.2018 09:00:00 18,5 17,0 17,1 22,7 19,9 7 4 19 11 W 1015,3 43 0 0,0
16.07.2018 08:00:00 17,3 16,7 16,5 22,9 19,9 9 5 27 14 SW 1014,1 27 0 0,6
16.07.2018 07:00:00 17,8 16,0 16,6 23,0 19,8 12 7 23 13 SE 1013,9 1,0 0 10,6
16.07.2018 06:00:00 19,3 15,2 16,7 23,2 19,8 14 8 22 12 NW 1014,0 37 0 0,0
16.07.2018 05:00:00 20,0 15,2 17,0 23,3 19,9 10 6 31 17 N 1013,2 53 0 0,4
16.07.2018 04:00:00 20,9 15,9 19,6 23,4 19,9 20 11 41 22 WNW 1014,7 40 0 0,0
16.07.2018 03:00:00 21,2 17,6 18,7 23,5 19,8 22 12 33 18 WNW 1014,4 25 0 0,0
16.07.2018 02:00:00 20,6 19,9 16,8 23,7 19,9 7 4 13 7 W 1013,7 12 0 0,0
16.07.2018 01:00:00 20,4 19,1 17,4 23,8 19,8 5 3 8 5 WSW 1013,3 15 0 0,0
16.07.2018 00:00:00 21,4 19,9 18,4 23,9 19,8 5 3 9 5 ENE 1013,7 20 0 0,0
15.07.2018 23:00:00 22,5 20,0 19,1 23,9 19,8 5 3 9 5 S 1013,8 29 0 0,0
15.07.2018 22:00:00 24,1 20,2 20,8 24,0 19,8 6 3 13 7 SW 1013,1 34 11 0,0
15.07.2018 21:00:00 27,6 21,4 24,6 24,0 19,8 6 3 9 5 NNW 1012,5 37 57 0,0
15.07.2018 20:00:00 27,3 21,3 25,8 23,9 19,8 5 3 9 5 SSW 1012,4 49 1 0,0
15.07.2018 19:00:00 29,5 19,2 25,1 23,9 19,8 4 2 14 8 N 1012,0 58 17 0,0
15.07.2018 18:00:00 28,0 18,4 25,1 23,6 19,8 6 4 10 5 N 1013,0 55 0 0,0
15.07.2018 17:00:00 30,3 18,1 30,1 23,3 19,8 6 4 15 8 NNW 1012,7 51 30 0,0
15.07.2018 16:00:00 31,4 18,7 38,4 23,0 19,8 6 3 18 10 E 1012,8 42 60 0,0
15.07.2018 15:00:00 31,1 18,8 39,6 22,8 19,8 5 3 16 9 E 1013,3 19 60 0,0
15.07.2018 14:00:00 30,3 20,3 39,8 22,5 19,8 6 3 16 8 E 1014,1 20 60 0,0
15.07.2018 13:00:00 29,2 19,8 39,1 22,4 19,8 7 4 18 10 SE 1014,4 43 60 0,0
15.07.2018 12:00:00 28,2 18,3 37,1 22,3 19,8 4 2 17 9 SSE 1014,7 39 60 0,0
15.07.2018 11:00:00 26,6 19,7 31,4 22,3 19,8 7 4 15 8 SSE 1015,0 43 60 0,0
15.07.2018 10:00:00 24,2 20,3 26,8 22,4 19,8 9 5 16 9 ENE 1015,3 20 60 0,0
15.07.2018 09:00:00 21,9 19,3 19,8 22,5 19,8 7 4 13 7 E 1015,5 26 56 0,0
15.07.2018 08:00:00 19,3 18,3 16,1 22,6 19,8 8 4 11 6 E 1015,0 15 22 0,0
15.07.2018 07:00:00 18,1 17,5 16,5 22,7 19,8 3 2 19 11 ESE 1014,4 17 0 0,0
15.07.2018 06:00:00 18,9 18,4 17,0 22,8 19,8 8 4 15 8 NNW 1015,2 13 0 0,0
15.07.2018 05:00:00 18,6 17,6 16,2 22,9 19,8 4 2 19 10 NE 1014,6 13 0 0,2
15.07.2018 04:00:00 19,5 17,1 17,0 23,1 19,8 6 4 16 9 SW 1014,7 0,8 0 4,8
15.07.2018 03:00:00 19,4 17,0 16,9 23,2 19,8 6 3 11 6 NE 1014,6 36 0 0,0
15.07.2018 02:00:00 19,7 17,5 17,4 23,3 19,8 4 2 7 4 SSE 1015,1 37 0 0,0
15.07.2018 01:00:00 19,8 17,8 17,0 23,4 19,8 6 3 7 4 ENE 1015,4 32 0 0,0
15.07.2018 00:00:00 19,6 17,4 16,5 23,5 19,8 4 2 5 3 SW 1015,7 14 0 0,0
14.07.2018 23:00:00 20,6 17,6 16,6 23,5 19,8 0 0 5 3 N 1015,4 18 0 0,0
14.07.2018 22:00:00 24,6 17,6 18,7 23,5 19,8 2 1 9 5 NNE 1014,9 10 17 0,0
14.07.2018 21:00:00 28,5 17,4 25,1 23,5 19,8 6 3 15 8 NNE 1014,6 58 60 0,0
14.07.2018 20:00:00 29,7 17,2 28,6 23,3 19,8 9 5 22 12 NNE 1014,5 58 60 0,0
14.07.2018 19:00:00 30,5 16,1 32,3 23,2 19,8 7 4 18 10 NE 1014,6 50 60 0,0
14.07.2018 18:00:00 31,3 16,1 36,7 22,9 19,8 6 3 19 10 NNE 1015,0 20 60 0,0
14.07.2018 17:00:00 31,1 15,5 37,6 22,6 19,8 7 4 18 10 ENE 1015,3 55 60 0,0
14.07.2018 16:00:00 30,9 15,3 38,0 22,4 19,8 6 4 19 10 ENE 1015,7 36 60 0,0
14.07.2018 15:00:00 30,4 14,5 37,4 22,1 19,8 8 4 18 10 ENE 1016,2 59 60 0,0
14.07.2018 14:00:00 29,7 16,5 38,8 21,9 19,8 5 3 15 8 NE 1016,6 58 60 0,0
14.07.2018 13:00:00 28,6 16,8 33,2 21,8 19,8 4 2 11 6 NW 1016,9 42 52 0,0
14.07.2018 12:00:00 26,2 18,6 29,9 21,7 19,8 5 3 13 7 N 1017,3 46 41 0,0

tt = Température de l'air
td = dewpoint
tt 5cm = Température de l'air 5cm
tt -20cm = Température de l'air -20cm
tt -100cm = Température de l'air -100cm
ff = Vitesse du vent
fx = gusts
dd = Direction du vent
ppp = reduced air pressure
vv = visibility
sd = Ensoleillement
rr = Quantités de précipitations

stations d'obs. à proximité